This is the latest recevied weather packets stored in our database for station/object KI5MKI. If no packets are shown the sender has not sent any weather packets the latest 10 day(s).
| Time | Temp. | Humidity | Pressure | Rain* | Wind** | Luminosity | Snow |
|---|---|---|---|---|---|---|---|
| 1777582202 | 16.67° C | 74% | 1014.9 hPa | 0 mm | - | 189 W/m² | - |
| 1777581901 | 16.67° C | 75% | 1014.7 hPa | 0 mm | - | 171 W/m² | - |
| 1777581596 | 16.67° C | 74% | 1014.7 hPa | 0 mm | - | 126 W/m² | - |
| 1777581290 | 16.67° C | 75% | 1014.7 hPa | 0 mm | - | 122 W/m² | - |
| 1777580986 | 16.67° C | 75% | 1014.5 hPa | 0 mm | - | 104 W/m² | - |
| 1777580685 | 16.67° C | 75% | 1014.5 hPa | 0 mm | - | 96 W/m² | - |
| 1777580382 | 16.67° C | 76% | 1014.4 hPa | 0 mm | - | 99 W/m² | - |
| 1777580078 | 16.67° C | 75% | 1014.2 hPa | 0 mm | - | 114 W/m² | - |
| 1777579775 | 16.67° C | 76% | 1014 hPa | 0 mm | - | 118 W/m² | - |
| 1777579472 | 16.67° C | 76% | 1013.6 hPa | 0 mm | - | 128 W/m² | - |
| 1777579167 | 16.67° C | 75% | 1014 hPa | 0 mm | - | 130 W/m² | - |
| 1777578863 | 16.67° C | 77% | 1013.8 hPa | 0 mm | - | 120 W/m² | - |
| 1777578559 | 16.67° C | 77% | 1013.5 hPa | 0 mm | - | 131 W/m² | - |
| 1777578254 | 16.67° C | 77% | 1013.5 hPa | 0 mm | - | 155 W/m² | - |
| 1777577949 | 16.67° C | 78% | 1013.5 hPa | 0 mm | - | 156 W/m² | - |
| 1777577645 | 16.67° C | 78% | 1013.7 hPa | 0 mm | - | 170 W/m² | - |
| 1777577343 | 16.11° C | 76% | 1014.1 hPa | 0 mm | - | 153 W/m² | - |
| 1777577038 | 16.11° C | 77% | 1014.3 hPa | 0 mm | - | 130 W/m² | - |
| 1777576735 | 16.11° C | 76% | 1014.3 hPa | 0 mm | - | 101 W/m² | - |
| 1777576434 | 16.11° C | 77% | 1014.5 hPa | 0 mm | - | 81 W/m² | - |
| 1777576131 | 16.11° C | 78% | 1014.4 hPa | 0 mm | - | 82 W/m² | - |
| 1777575826 | 16.67° C | 77% | 1014 hPa | 0 mm | - | 127 W/m² | - |
| 1777575524 | 16.67° C | 79% | 1013.9 hPa | 0 mm | - | 190 W/m² | - |
| 1777575219 | 16.67° C | 79% | 1014.1 hPa | 0 mm | - | 147 W/m² | - |
| 1777574915 | 16.11° C | 79% | 1014.4 hPa | 0 mm | - | 121 W/m² | - |
* Rain latest hour (hover to see other rain measurements)
** Current wind speed in m/s (hover to see current wind gust speed)